| time (UTC) | temp C | wind direction | speed KPH | gust KPH | rain 1hr cm | rain 24hr cm | rain mn cm | humidity % | barometer mb |
| 20260903103036 | 20 | 161 | 0.0 | 0.0 | 0.00 | 0.41 | 0.41 | 97 | 1012.8 |
| 20260903101536 | 20 | 204 | 0.0 | 0.0 | 0.00 | 0.41 | 0.41 | 97 | 1012.7 |
| 20260903100033 | 19 | 204 | 0.0 | 0.0 | 0.03 | 0.41 | 0.41 | 97 | 1012.8 |
| 20260903094528 | 19 | 206 | 0.0 | 0.0 | 0.33 | 0.41 | 0.41 | 97 | 1013.3 |
| 20260903093026 | 18 | 206 | 0.0 | 0.0 | 0.36 | 0.41 | 0.41 | 96 | 1013.4 |
| 20260903091532 | 18 | 206 | 0.0 | 0.0 | 0.38 | 0.41 | 0.41 | 96 | 1013.5 |
| 20260903090026 | 18 | 206 | 0.0 | 0.0 | 0.38 | 0.38 | 0.38 | 95 | 1013.4 |
| 20260903084522 | 18 | 206 | 0.0 | 0.0 | 0.08 | 0.08 | 0.08 | 94 | 1013.5 |
| 20260903083018 | 18 | 206 | 0.0 | 0.0 | 0.05 | 0.05 | 0.05 | 93 | 1013.9 |
| 20260903081517 | 18 | 206 | 0.0 | 0.0 | 0.03 | 0.03 | 0.03 | 92 | 1014.2 |
| 20260903080015 | 18 | 206 | 0.0 | 0.0 | 0.00 | 0.00 | 0.00 | 92 | 1014.0 |
| 20260903074513 | 18 | 206 | 0.0 | 0.0 | 0.00 | 0.00 | 0.00 | 91 | 1014.4 |
| 20260903073011 | 18 | 206 | 0.0 | 0.0 | 0.00 | 0.00 | 0.00 | 90 | 1014.4 |
| 20260903071507 | 18 | 206 | 0.0 | 0.0 | 0.00 | 0.00 | 0.00 | 89 | 1014.7 |
| 20260903070007 | 18 | 205 | 0.0 | 0.0 | 0.00 | 0.00 | 0.00 | 88 | 1015.0 |
| 20260903064504 | 18 | 205 | 0.0 | 0.0 | 0.00 | 0.00 | 0.00 | 86 | 1015.2 |
| 20260903063125 | 19 | 205 | 0.0 | 0.0 | 0.00 | 0.00 | 0.00 | 83 | 1015.5 |
| 20260903061559 | 19 | 205 | 0.0 | 0.0 | 0.00 | 0.00 | 0.00 | 82 | 1015.7 |
| 20260903060056 | 19 | 205 | 0.0 | 0.0 | 0.00 | 0.00 | 0.00 | 82 | 1016.0 |
| 20260903054555 | 19 | 205 | 0.0 | 0.0 | 0.00 | 0.00 | 0.00 | 82 | 1016.2 |
| 20260903053055 | 19 | 205 | 0.0 | 0.0 | 0.00 | 0.00 | 0.00 | 81 | 1016.5 |
| 20260903051550 | 19 | 205 | 0.0 | 0.0 | 0.00 | 0.00 | 0.00 | 80 | 1016.6 |
| 20260903050048 | 19 | 205 | 0.0 | 0.0 | 0.00 | 0.00 | 0.00 | 80 | 1016.7 |
| 20260903044547 | 19 | 209 | 0.0 | 0.0 | 0.00 | 0.00 | 0.00 | 81 | 1016.8 |
| 20260903043059 | 19 | 209 | 0.0 | 0.0 | 0.00 | 0.00 | 0.00 | 80 | 1017.0 |
| 20260903041541 | 19 | 183 | 0.0 | 0.0 | 0.00 | 0.00 | 0.00 | 81 | 1016.7 |
| 20260903040038 | 18 | 183 | 0.0 | 0.0 | 0.00 | 0.00 | 0.00 | 81 | 1016.8 |
| 20260903034539 | 18 | 183 | 0.0 | 0.0 | 0.00 | 0.00 | 0.00 | 80 | 1016.6 |
| 20260903033036 | 18 | 183 | 0.0 | 0.0 | 0.00 | 0.00 | 0.00 | 80 | 1016.8 |
| 20260903031543 | 18 | 181 | 0.0 | 0.0 | 0.00 | 0.00 | 0.00 | 80 | 1017.0 |
| 20260903030031 | 18 | 181 | 0.0 | 0.0 | 0.00 | 0.00 | 0.00 | 80 | 1017.5 |
| 20260903024530 | 18 | 181 | 0.0 | 1.6 | 0.00 | 0.00 | 0.00 | 80 | 1017.7 |
| 20260903023030 | 19 | 200 | 0.0 | 0.0 | 0.00 | 0.00 | 0.00 | 80 | 1017.7 |
| 20260903021529 | 18 | 169 | 0.0 | 0.0 | 0.00 | 0.00 | 0.00 | 79 | 1017.6 |
| 20260903020038 | 18 | 349 | 0.0 | 1.6 | 0.00 | 0.00 | 0.00 | 79 | 1017.4 |
| 20260903014527 | 19 | 349 | 0.0 | 0.0 | 0.00 | 0.00 | 0.00 | 78 | 1017.5 |
| 20260903013027 | 19 | 349 | 0.0 | 0.0 | 0.00 | 0.00 | 0.00 | 76 | 1018.0 |
| 20260903011526 | 19 | 349 | 0.0 | 0.0 | 0.00 | 0.00 | 0.00 | 76 | 1018.1 |
| 20260903010026 | 20 | 349 | 0.0 | 0.0 | 0.00 | 0.00 | 0.00 | 76 | 1018.1 |
| 20260903004526 | 20 | 349 | 0.0 | 0.0 | 0.00 | 0.00 | 0.00 | 75 | 1017.9 |
| 20260903003026 | 20 | 349 | 0.0 | 0.0 | 0.00 | 0.00 | 0.00 | 76 | 1017.8 |
| 20260903001524 | 20 | 341 | 0.0 | 1.6 | 0.00 | 0.00 | 0.00 | 74 | 1018.1 |
| 20260903000027 | 20 | 360 | 0.0 | 0.0 | 0.00 | 0.00 | 0.00 | 73 | 1018.2 |
| 20260902234528 | 20 | 360 | 0.0 | 1.6 | 0.00 | 0.00 | 0.00 | 73 | 1018.6 |
| 20260902233024 | 20 | 212 | 0.0 | 1.6 | 0.00 | 0.00 | 0.00 | 73 | 1018.7 |
| 20260902231525 | 21 | 214 | 0.0 | 0.0 | 0.00 | 0.00 | 0.00 | 71 | 1018.7 |
| 20260902230022 | 21 | 203 | 0.0 | 0.0 | 0.00 | 0.00 | 0.00 | 71 | 1019.0 |
| 20260902224521 | 21 | 215 | 0.0 | 1.6 | 0.00 | 0.03 | 0.00 | 69 | 1018.9 |
| 20260902223037 | 21 | 189 | 0.0 | 0.0 | 0.00 | 0.03 | 0.00 | 69 | 1018.9 |
| 20260902221522 | 21 | 231 | 0.0 | 0.0 | 0.00 | 0.03 | 0.00 | 68 | 1018.6 |
| 20260902220020 | 22 | 319 | 0.0 | 0.0 | 0.00 | 0.03 | 0.00 | 67 | 1018.3 |
| 20260902214519 | 22 | 280 | 0.0 | 3.2 | 0.00 | 0.08 | 0.00 | 68 | 1018.2 |
| 20260902213019 | 22 | 297 | 0.0 | 1.6 | 0.00 | 0.08 | 0.00 | 68 | 1018.0 |
| 20260902211520 | 23 | 117 | 0.0 | 3.2 | 0.00 | 0.08 | 0.00 | 67 | 1018.2 |
| 20260902210017 | 23 | 333 | 0.0 | 1.6 | 0.00 | 0.10 | 0.00 | 66 | 1018.5 |
| 20260902204531 | 23 | 204 | 0.0 | 0.0 | 0.00 | 0.10 | 0.00 | 67 | 1018.6 |
| 20260902203015 | 23 | 200 | 0.0 | 0.0 | 0.00 | 0.10 | 0.00 | 66 | 1018.6 |
| 20260902201514 | 23 | 198 | 0.0 | 1.6 | 0.00 | 0.10 | 0.00 | 64 | 1018.5 |
| 20260902200011 | 24 | 242 | 0.0 | 3.2 | 0.00 | 0.30 | 0.00 | 62 | 1018.5 |
| 20260902194510 | 25 | 215 | 0.0 | 3.2 | 0.00 | 0.30 | 0.00 | 62 | 1018.8 |
| 20260902193008 | 26 | 189 | 0.0 | 6.4 | 0.00 | 0.30 | 0.00 | 59 | 1018.8 |
| 20260902191506 | 26 | 207 | 0.0 | 4.8 | 0.00 | 0.30 | 0.00 | 60 | 1018.7 |
| 20260902190006 | 26 | 209 | 0.0 | 4.8 | 0.00 | 0.46 | 0.00 | 59 | 1018.9 |
| 20260902184501 | 26 | 183 | 1.6 | 4.8 | 0.00 | 0.46 | 0.00 | 60 | 1019.0 |
| 20260902183111 | 26 | 231 | 0.0 | 4.8 | 0.00 | 0.46 | 0.00 | 61 | 1018.9 |
| 20260902181612 | 26 | 306 | 0.0 | 3.2 | 0.00 | 0.46 | 0.00 | 61 | 1018.7 |
| 20260902180056 | 25 | 121 | 0.0 | 4.8 | 0.00 | 0.46 | 0.00 | 61 | 1018.9 |
| 20260902174557 | 26 | 228 | 0.0 | 1.6 | 0.00 | 0.69 | 0.00 | 59 | 1019.0 |
| 20260902173101 | 25 | 179 | 0.0 | 3.2 | 0.00 | 0.69 | 0.00 | 62 | 1018.9 |
| 20260902171549 | 25 | 350 | 0.0 | 3.2 | 0.00 | 0.69 | 0.00 | 66 | 1019.0 |
| 20260902170051 | 25 | 179 | 0.0 | 4.8 | 0.00 | 0.69 | 0.00 | 66 | 1019.2 |
| 20260902164544 | 24 | 219 | 0.0 | 1.6 | 0.00 | 0.69 | 0.00 | 68 | 1019.3 |
| 20260902163044 | 24 | 11 | 0.0 | 1.6 | 0.00 | 0.69 | 0.00 | 68 | 1019.4 |
| 20260902161539 | 23 | 321 | 0.0 | 1.6 | 0.00 | 0.69 | 0.00 | 70 | 1019.4 |
| 20260902160037 | 23 | 4 | 0.0 | 3.2 | 0.00 | 0.69 | 0.00 | 69 | 1019.7 |
| 20260902154538 | 22 | 31 | 0.0 | 1.6 | 0.00 | 1.22 | 0.00 | 71 | 1020.0 |
| 20260902153034 | 22 | 244 | 0.0 | 1.6 | 0.00 | 1.22 | 0.00 | 70 | 1019.9 |
| 20260902151536 | 22 | 360 | 0.0 | 3.2 | 0.00 | 1.22 | 0.00 | 72 | 1020.1 |
| 20260902150029 | 22 | 285 | 0.0 | 1.6 | 0.00 | 1.22 | 0.00 | 72 | 1019.9 |
| 20260902144526 | 21 | 323 | 0.0 | 8.0 | 0.00 | 2.01 | 0.00 | 76 | 1020.1 |
| 20260902143023 | 21 | 351 | 0.0 | 6.4 | 0.00 | 2.01 | 0.00 | 81 | 1019.8 |
| 20260902141521 | 21 | 334 | 3.2 | 6.4 | 0.00 | 2.01 | 0.00 | 81 | 1019.7 |
| 20260902140020 | 20 | 349 | 0.0 | 1.6 | 0.00 | 2.01 | 0.00 | 83 | 1019.6 |
| 20260902134518 | 20 | 338 | 0.0 | 1.6 | 0.00 | 2.44 | 0.00 | 85 | 1019.2 |
| 20260902133015 | 20 | 344 | 0.0 | 4.8 | 0.00 | 2.44 | 0.00 | 85 | 1019.1 |
| 20260902131513 | 20 | 8 | 3.2 | 6.4 | 0.00 | 2.44 | 0.00 | 86 | 1019.1 |
| 20260902130012 | 19 | 315 | 0.0 | 3.2 | 0.00 | 2.64 | 0.00 | 87 | 1019.3 |
| 20260902124510 | 19 | 342 | 0.0 | 6.4 | 0.00 | 2.64 | 0.00 | 88 | 1019.4 |
| 20260902123008 | 18 | 340 | 0.0 | 4.8 | 0.00 | 2.64 | 0.00 | 90 | 1019.5 |
| 20260902121506 | 18 | 12 | 0.0 | 0.0 | 0.00 | 2.64 | 0.00 | 91 | 1019.4 |
| 20260902120003 | 18 | 4 | 0.0 | 4.8 | 0.00 | 2.64 | 0.00 | 93 | 1019.6 |
| 20260902114502 | 18 | 351 | 0.0 | 4.8 | 0.00 | 2.64 | 0.00 | 94 | 1019.8 |
| 20260902113057 | 17 | 356 | 0.0 | 0.0 | 0.00 | 2.64 | 0.00 | 94 | 1019.7 |
| 20260902111558 | 17 | 347 | 0.0 | 0.0 | 0.00 | 2.64 | 0.00 | 95 | 1019.5 |
| 20260902110059 | 17 | 351 | 0.0 | 0.0 | 0.00 | 2.64 | 0.00 | 95 | 1019.5 |
| 20260902104602 | 17 | 351 | 0.0 | 0.0 | 0.00 | 2.64 | 0.00 | 95 | 1019.2 |